Location: Erdweis
(48.5167°N, 15.3500°E)
Time: 12:26:50
(UTC+00:00)

USA 234 - Pass Details

Date: 25 January 2021
Orbit: 1100 x 1107 km, 123.0° (Epoch: 01 March)

Event Time Altitude Azimuth Distance (km) Brightness Sun altitude
Exits shadow 20:19:36 28° 300° (WNW) 1,932 4.9 -44.5°
Drops below altitude 10° 20:22:25 10° 304° (NW) 2,966 6.1 -44.9°
Sets 20:24:55 0° 305° (NW) 3,927 6.9 -45.3°
